Total_Precipitation_Accumulation
0.17 0.20 0.22 0.25 0.24 0.24 0.28 0.35 0.40 0.50 0.62 0.84 1.17 1.60 1.82 1.95 1.97 1.99 1.90 1.69 1.46 1.46 1.61 1.56 1.55 1.53 1.49 1.44 1.37 1.46 1.40 1.15 1.04 1.14 1.07 0.92 0.73 0.68 0.62 0.54 0.55 0.62 0.62
0.12 0.11 0.13 0.15 0.14 0.15 0.17 0.27 0.33 0.42 0.56 0.85 1.17 1.52 1.88 1.97 1.99 1.99 1.95 1.83 1.70 1.70 1.73 1.89 1.98 1.95 2.01 1.97 1.77 1.86 1.87 1.56 1.32 1.44 1.63 1.35 1.12 0.75 0.63 0.62 0.57 0.61 0.69
0.11 0.09 0.08 0.09 0.11 0.11 0.12 0.18 0.24 0.39 0.67 1.01 1.33 1.53 1.82 1.95 2.01 1.97 1.97 2.00 1.95 1.85 1.87 1.97 2.10 2.11 2.17 2.22 2.27 2.19 2.25 2.04 1.69 1.56 1.72 1.52 1.35 1.12 0.72 0.63 0.68 0.72 0.78
0.14 0.12 0.09 0.07 0.08 0.09 0.11 0.14 0.20 0.40 0.74 1.08 1.34 1.59 1.94 2.05 2.03 2.06 2.05 2.06 2.09 2.04 2.10 2.11 2.20 2.22 2.22 2.29 2.38 2.33 2.41 2.43 2.07 1.81 1.58 1.38 1.30 1.30 1.04 0.80 0.70 0.77 0.82
0.15 0.12 0.10 0.09 0.10 0.10 0.13 0.20 0.34 0.52 0.78 0.99 1.24 1.60 1.86 1.98 2.14 2.08 2.06 2.06 2.13 2.15 2.16 2.22 2.35 2.33 2.28 2.27 2.47 2.50 2.55 2.46 2.38 2.22 2.04 1.87 1.58 1.21 1.21 1.16 0.95 0.83 0.73
0.16 0.16 0.15 0.15 0.16 0.18 0.24 0.33 0.49 0.64 0.85 1.02 1.22 1.41 1.67 1.82 1.97 2.07 2.01 2.00 2.06 2.16 2.05 1.98 2.11 2.16 2.17 2.17 2.33 2.48 2.58 2.52 2.55 2.44 2.16 2.06 1.89 1.52 1.44 1.28 1.14 1.06 0.86
0.26 0.30 0.31 0.34 0.41 0.44 0.48 0.56 0.65 0.76 0.87 0.97 1.06 1.13 1.30 1.47 1.54 1.71 1.80 1.92 1.93 1.99 2.02 1.91 1.90 1.93 1.87 1.89 1.99 2.05 2.11 2.23 2.37 2.27 2.06 2.01 1.83 1.77 1.74 1.60 1.37 1.15 0.91
0.43 0.53 0.61 0.69 0.76 0.75 0.74 0.81 0.86 0.84 0.83 0.87 0.94 0.97 1.04 1.13 1.21 1.26 1.30 1.48 1.65 1.69 1.77 1.76 1.69 1.73 1.78 1.77 1.82 1.83 1.84 1.86 1.92 1.93 1.97 2.00 1.86 1.78 1.68 1.63 1.72 1.50 1.25
0.71 0.81 0.91 0.92 0.93 0.90 0.85 0.86 0.89 0.86 0.84 0.84 0.84 0.80 0.79 0.86 0.97 1.00 1.07 1.14 1.24 1.26 1.32 1.41 1.48 1.55 1.60 1.66 1.77 1.81 1.80 1.75 1.72 1.83 1.89 1.82 1.78 1.76 1.64 1.56 1.60 1.64 1.49
1.06 1.19 1.27 1.17 1.10 1.09 1.13 1.02 0.93 0.85 0.82 0.82 0.82 0.76 0.73 0.78 0.81 0.82 0.89 0.87 0.89 0.91 0.96 1.08 1.25 1.45 1.55 1.61 1.66 1.68 1.74 1.76 1.72 1.81 1.91 1.91 1.92 1.95 1.86 1.70 1.63 1.54 1.50
1.43 1.52 1.53 1.43 1.23 1.10 1.10 1.04 0.93 0.82 0.72 0.71 0.76 0.76 0.71 0.73 0.77 0.76 0.71 0.66 0.69 0.75 0.86 0.90 1.05 1.21 1.37 1.54 1.67 1.66 1.66 1.67 1.65 1.62 1.71 1.82 1.93 2.02 2.03 1.99 1.83 1.67 1.60
1.30 1.34 1.30 1.29 1.18 1.08 1.00 0.95 0.85 0.71 0.65 0.70 0.73 0.75 0.67 0.61 0.64 0.64 0.66 0.58 0.55 0.60 0.69 0.81 0.98 1.12 1.21 1.24 1.31 1.38 1.40 1.41 1.44 1.43 1.40 1.51 1.63 1.76 1.91 1.97 1.91 1.87 1.75
0.98 1.07 1.13 1.04 1.00 0.92 0.87 0.95 0.95 0.83 0.81 0.84 0.90 0.83 0.70 0.66 0.64 0.60 0.61 0.57 0.56 0.59 0.65 0.79 0.92 0.97 1.02 1.04 1.03 1.11 1.19 1.21 1.18 1.22 1.19 1.21 1.32 1.46 1.59 1.68 1.75 1.85 1.88
0.78 0.84 0.92 0.88 0.89 0.83 0.80 0.89 0.94 0.95 1.02 1.10 1.06 0.89 0.77 0.70 0.64 0.59 0.54 0.54 0.58 0.62 0.68 0.84 0.92 0.94 0.88 0.95 0.97 1.00 1.02 1.00 0.96 0.99 1.00 1.03 1.06 1.12 1.24 1.40 1.60 1.76 1.86
0.56 0.55 0.55 0.56 0.63 0.63 0.60 0.65 0.72 0.83 0.98 1.05 0.94 0.80 0.68 0.58 0.53 0.56 0.51 0.52 0.59 0.63 0.69 0.75 0.86 0.90 0.87 0.90 0.96 0.94 0.84 0.82 0.83 0.81 0.73 0.74 0.79 0.79 0.85 0.92 1.19 1.43 1.61
0.33 0.31 0.28 0.28 0.33 0.33 0.35 0.39 0.47 0.62 0.85 0.93 0.81 0.64 0.56 0.53 0.48 0.47 0.44 0.43 0.45 0.51 0.57 0.63 0.79 0.90 0.81 0.92 0.91 0.81 0.72 0.70 0.73 0.70 0.64 0.62 0.66 0.59 0.55 0.58 0.77 1.04 1.23
0.23 0.24 0.22 0.20 0.20 0.20 0.23 0.30 0.36 0.50 0.60 0.62 0.58 0.47 0.41 0.39 0.38 0.37 0.38 0.40 0.42 0.45 0.51 0.56 0.72 0.82 0.90 0.85 0.69 0.72 0.69 0.70 0.73 0.74 0.74 0.67 0.64 0.72 0.63 0.57 0.63 0.71 0.81
0.21 0.21 0.21 0.20 0.21 0.22 0.23 0.32 0.37 0.39 0.45 0.52 0.50 0.44 0.39 0.36 0.35 0.34 0.35 0.43 0.44 0.43 0.48 0.54 0.59 0.67 0.80 0.74 0.59 0.62 0.59 0.69 0.77 0.81 0.88 0.88 0.81 0.79 0.84 0.79 0.80 0.78 0.71
0.13 0.13 0.13 0.12 0.12 0.12 0.11 0.13 0.17 0.22 0.27 0.30 0.35 0.34 0.29 0.30 0.34 0.33 0.39 0.43 0.44 0.48 0.49 0.54 0.57 0.63 0.68 0.64 0.56 0.56 0.62 0.75 0.79 0.76 0.87 0.87 0.80 0.85 0.90 1.00 1.05 0.97 0.83
0.03 0.03 0.03 0.03 0.03 0.02 0.03 0.04 0.05 0.06 0.09 0.10 0.14 0.18 0.19 0.23 0.29 0.38 0.44 0.42 0.41 0.46 0.48 0.47 0.47 0.51 0.54 0.59 0.49 0.59 0.70 0.75 0.76 0.77 0.82 0.96 0.87 0.85 0.83 0.88 0.99 0.97 0.86
0.00 0.00 0.00 0.01 0.01 0.01 0.01 0.02 0.02 0.02 0.02 0.02 0.04 0.07 0.11 0.17 0.25 0.33 0.32 0.33 0.36 0.39 0.41 0.44 0.43 0.44 0.52 0.62 0.62 0.68 0.70 0.74 0.80 0.88 0.93 0.91 0.98 0.82 0.78 0.77 0.75 0.80 0.78
0.00 0.00 0.00 0.00 0.00 0.00 0.00 0.00 0.00 0.00 0.00 0.00 0.01 0.02 0.04 0.07 0.12 0.20 0.23 0.26 0.30 0.32 0.32 0.32 0.33 0.37 0.48 0.56 0.58 0.59 0.64 0.72 0.73 0.78 0.78 0.75 0.82 0.66 0.58 0.55 0.61 0.65 0.65
0.00 0.00 0.00 0.00 0.00 0.00 0.00 0.00 0.00 0.00 0.00 0.00 0.00 0.00 0.01 0.02 0.06 0.12 0.17 0.21 0.27 0.29 0.28 0.26 0.28 0.32 0.36 0.44 0.47 0.47 0.46 0.48 0.53 0.51 0.59 0.59 0.57 0.51 0.45 0.49 0.53 0.55 0.56
0.00 0.00 0.00 0.00 0.00 0.00 0.00 0.00 0.00 0.00 0.00 0.00 0.00 0.00 0.01 0.01 0.03 0.06 0.13 0.21 0.24 0.23 0.24 0.26 0.27 0.31 0.34 0.34 0.35 0.39 0.39 0.38 0.42 0.41 0.43 0.42 0.41 0.42 0.42 0.45 0.49 0.55 0.58
0.00 0.00 0.00 0.00 0.00 0.00 0.00 0.00 0.00 0.00 0.00 0.00 0.00 0.00 0.00 0.01 0.02 0.02 0.06 0.13 0.15 0.14 0.18 0.23 0.27 0.31 0.34 0.30 0.27 0.27 0.34 0.40 0.45 0.49 0.43 0.39 0.39 0.41 0.48 0.49 0.47 0.50 0.54
0.00 0.00 0.00 0.00 0.00 0.00 0.00 0.00 0.00 0.00 0.00 0.00 0.00 0.00 0.00 0.01 0.01 0.02 0.03 0.05 0.05 0.07 0.08 0.09 0.13 0.13 0.13 0.13 0.13 0.16 0.21 0.28 0.34 0.48 0.54 0.55 0.60 0.62 0.60 0.57 0.49 0.44 0.44